Location: Saint Louis
(38.6272°N, 90.1978°W)
Time: 06:54:24
(UTC-05:00)

ISS - Pass Details

Date: 06 June 2013
Orbit: 401 x 404 km, 51.6° (Epoch: 25 July)

Event Time Altitude Azimuth Distance (km) Brightness Sun altitude
Rises 22:03:11 0° 250° (WSW) 2,360 0.8 -16.0°
Reaches altitude 10° 22:05:23 10° 259° (W) 1,495 -0.1 -16.3°
Maximum altitude 22:08:31 36° 328° (NNW) 680 -1.6 -16.7°
Drops below altitude 10° 22:11:38 10° 37° (NE) 1,487 -0.3 -17.1°
Sets 22:13:50 0° 46° (NE) 2,347 0.6 -17.4°
